Starlink 3044

operational
NORAD ID: 49438 Int'l Des: 2021-104 Owner: SPXS Country: US Constellation: starlink
LEOCIRCULAR

Starlink 3044について

説明を読み込み中...

リアルタイム位置

3D地球を読み込み中...

次回通過

高度履歴

Altitude vs Time

uPlot chart will show altitude changes over time

軌道要素

1 49438U 21104AG 26094.25394934 -.00000533 00000-0 -15394-4 0 9995
2 49438 53.2168 94.2921 0001272 87.0577 273.0560 15.08835981242771
Epoch: Apr 4, 2026 • Age: 20 hours

現在のステータス

高度 541.3 km
速度 7.60 km/s
衛星直下点 32.75°N, 21.96°E
打ち上げ日 Nov 13, 2021
運用期間 4.3 years
タイプ internet

技術仕様

分類 Payload
質量 290.00 kg
乾燥質量 270.00 kg
総質量 290.00 kg
長さ 0.20 m
直径 2.80 m
スパン 9.00 m
形状 Box + pan
製造者 SPXS
バスタイプ Starlink
フェーズステータス In Orbit
所有者/国 SPXS/US

大規模コンステレーション

Loading constellations...